{"data":{"norad_id":58182,"intl_designator":"2023-167H","name":"STARLINK-30778","alt_names":[],"object_type":"PAYLOAD","status":"ACTIVE","operator":null,"country":"US","launch_date":"2023-10-30","launch_site_code":"AFETR","launch_vehicle":null,"mission":null,"orbit_class":"UNKNOWN","rcs_meters":null,"size_class":null,"mass_kg":null,"dimensions":null,"purposes":["comms"],"wikipedia_slug":null,"has_3d_model":false,"image_url":null,"decayed_at":null,"tle_current":{"epoch":"2026-09-20T21:59:34.490688Z","epoch_age_seconds":104485,"freshness":"FRESH","line1":"1 58182U 23167H   26263.91637142  .00000143  00000+0  14699-4 0  9995","line2":"2 58182  43.0017 120.7603 0000975 274.4174  85.6567 15.27578306160840","mean_motion":15.27578306,"eccentricity":9.75e-5,"inclination_deg":43.0017,"raan_deg":120.7603,"arg_perigee_deg":274.4174,"mean_anomaly_deg":85.6567,"bstar":1.4699e-5,"rev_number":16084,"period_min":94.266853250271,"perigee_km":482.38520235083,"apogee_km":483.72313462868,"semimajor_km":6861.1911684898,"source":"CELESTRAK","updated_at":"2026-09-21T09:00:33.827275Z"}}}